Tracking 27422 objects as of 30-May-2023
HD Live streaming from Space Station
objects crossing your sky now

FENGYUN 1C DEB

Track FENGYUN 1C DEB now!
10-day predictions


NORAD ID: 36167
Int'l Code: 1999-025DSQ
Perigee: 708.9 km
Apogee: 827.5 km
Inclination: 98.9 °
Period: 100.1 minutes
Semi major axis: 7139 km
RCS: 0.0111 m2 (small)
Launch date: May 10, 1999
Source: People's Republic of China (PRC)
Launch site: Taiyaun Space Center, China (TSC)

Note: This is SATELLITE DEBRIS
Your satellite tracking list
Your tracking list is empty




NASA's NSSDC Master Catalog

Two Line Element Set (TLE):
1 36167U 99025DSQ 23149.87455153  .00002278  00000-0  72067-3 0  9999
2 36167  98.9010   9.1013 0083004 130.8086 230.0338 14.39223026753890
Source of the keplerian elements: AFSPC